RH
32 29 25 23 24 24 25 27 28 28 31 35 36 35 33 30 27 23 21 21 24 26 28 38 55 65 66 68 70 70 69 68 65 60 52 42 37 36 38 40 39 40 42 44 44 45 47 48 48 51 51 50 51 53 55 56 55 55 58 59 62 66 68 68 63 59 59 57 55 54 54 55 55 53 53 52 49 48 47 48 47 44 42 37 31 29 28 27
36 32 29 25 23 24 25 26 26 27 31 35 37 37 36 33 30 26 23 20 20 23 24 26 37 52 60 64 67 70 70 68 66 62 55 49 45 41 40 41 41 40 41 43 45 45 46 48 50 52 52 51 51 51 52 55 55 56 59 59 60 62 63 62 59 57 55 55 55 54 52 54 55 53 54 54 51 50 49 48 48 48 49 44 35 29 27 26
38 36 33 28 24 23 24 25 26 26 29 32 35 36 37 36 33 30 27 24 21 19 21 22 24 35 46 56 63 67 68 69 66 59 56 55 53 49 43 40 41 43 43 43 45 46 46 47 50 53 52 51 51 51 51 52 54 55 56 58 61 59 58 58 56 56 54 54 54 53 53 52 53 53 54 55 53 53 51 49 48 50 52 49 42 34 29 27
40 40 38 34 28 24 24 25 26 26 28 30 32 33 35 35 34 33 31 27 24 21 20 19 19 23 31 42 54 63 66 67 63 55 57 59 57 56 51 43 38 41 45 43 45 48 47 46 49 51 51 51 50 51 51 51 52 53 54 58 60 57 57 55 51 53 55 54 51 51 53 51 51 54 56 56 55 54 51 49 50 50 50 49 46 41 35 31
41 43 42 41 36 29 25 24 25 26 27 29 31 32 32 33 34 34 34 31 27 24 22 19 16 16 21 31 42 52 59 63 60 54 58 60 58 59 58 53 42 37 41 43 45 48 48 47 48 50 50 51 52 52 50 48 50 51 52 55 57 56 57 54 48 50 54 53 50 49 50 51 51 53 56 57 56 54 50 49 50 50 50 47 46 45 43 40
43 43 43 44 42 36 30 25 23 25 26 27 29 31 30 31 33 34 36 35 31 28 25 22 18 13 15 25 32 41 48 53 57 56 58 60 59 60 61 61 54 43 40 42 46 48 48 47 47 48 49 50 53 54 51 49 50 51 50 51 54 55 56 54 49 49 51 51 50 48 49 49 50 51 52 54 56 52 48 49 49 49 50 49 47 46 46 45
45 44 43 43 45 42 37 29 24 24 25 26 27 30 30 30 32 35 36 37 34 31 30 26 21 15 13 20 28 36 39 42 50 55 57 60 60 61 61 63 61 55 47 43 43 45 46 45 46 47 48 50 51 52 52 51 51 52 50 49 51 53 54 54 50 49 50 51 49 47 47 48 48 49 49 51 54 52 49 49 48 48 49 50 49 48 46 45
45 46 44 43 44 44 42 37 29 24 24 25 25 27 29 30 33 33 35 39 35 33 35 31 25 18 15 21 30 36 35 33 39 46 54 59 61 62 64 65 65 62 58 50 43 42 45 44 44 46 47 48 48 49 51 52 55 54 51 49 50 51 52 53 49 47 49 50 50 47 45 45 45 45 46 47 51 52 50 49 47 47 48 50 51 50 48 45
43 44 44 43 43 43 45 43 35 28 23 23 24 26 27 29 33 33 35 39 37 34 37 35 30 22 16 22 31 35 30 26 29 37 45 53 60 62 64 67 68 67 66 60 49 44 46 48 47 47 48 47 45 47 48 54 58 54 51 49 49 49 50 51 48 46 48 50 48 46 44 44 44 43 42 43 47 51 51 50 49 49 48 48 49 49 48 46
41 43 43 43 43 44 45 45 43 34 26 23 23 25 26 27 30 33 37 41 41 39 38 37 34 26 20 24 31 32 27 23 25 32 36 45 56 61 62 65 66 68 71 68 59 48 46 49 50 49 48 47 46 45 46 52 54 52 52 51 50 49 49 50 48 45 47 48 46 45 45 44 43 41 40 41 43 47 49 50 51 51 50 48 48 48 47 46
42 43 43 41 41 43 44 45 46 40 31 25 23 24 25 26 27 31 37 41 45 45 42 39 36 31 24 25 30 31 28 25 26 30 31 35 47 58 65 66 64 69 75 74 68 56 48 49 52 51 51 50 47 45 44 47 49 49 51 52 51 49 48 47 46 44 45 45 43 42 43 43 42 39 38 40 41 42 44 46 48 50 52 51 50 49 48 47
46 44 41 38 39 40 41 43 44 42 36 30 26 23 24 25 27 31 36 40 46 49 46 43 40 35 31 29 28 29 31 30 30 31 29 29 36 47 61 67 68 71 74 77 76 67 57 53 53 53 52 53 51 48 45 43 45 48 50 52 51 49 47 46 44 43 43 44 41 41 43 41 39 38 38 40 40 39 39 40 42 45 49 52 52 51 50 49
48 47 42 39 39 40 40 40 42 41 40 36 30 24 23 24 26 31 36 39 46 51 49 47 43 39 39 34 25 25 29 32 34 32 28 28 31 37 48 59 67 73 75 78 79 75 66 58 55 55 55 57 57 54 48 44 44 46 48 51 50 50 48 45 44 43 42 42 39 42 45 40 36 36 37 39 39 39 38 38 39 41 44 47 50 51 50 50
48 49 45 42 41 41 40 40 41 40 40 40 34 28 24 24 26 29 35 39 43 49 49 49 49 48 46 37 25 24 25 33 41 37 29 27 28 32 39 47 58 68 76 79 80 79 76 68 59 56 58 59 61 60 53 49 49 47 47 50 51 52 49 42 43 42 41 41 38 42 44 37 33 34 33 36 38 38 37 37 38 38 40 42 45 47 48 49
51 51 50 48 43 39 40 40 40 38 39 41 38 34 27 25 26 28 35 40 44 49 50 52 59 57 53 43 31 26 26 32 38 36 33 29 27 31 35 41 47 58 72 81 83 83 84 82 69 60 60 61 63 65 61 57 56 54 52 52 51 51 47 40 42 42 40 40 39 42 44 37 32 30 30 32 34 36 36 36 37 37 37 39 40 42 44 45
51 52 52 51 45 40 41 41 39 37 38 39 39 38 32 28 26 27 33 38 45 53 54 59 66 64 58 49 36 31 30 28 26 29 35 32 30 31 33 40 44 50 64 76 85 87 87 87 79 68 65 64 64 66 69 69 64 60 58 56 52 51 48 43 42 40 39 41 41 41 43 40 33 27 27 30 31 34 34 34 35 36 36 36 35 36 39 40
50 51 53 53 48 43 42 40 39 38 38 37 38 39 37 32 28 27 30 36 45 55 58 60 66 67 62 50 41 37 31 25 22 27 33 33 32 32 32 39 46 49 55 67 83 91 90 89 87 79 72 68 68 70 74 74 69 64 60 59 58 57 56 52 45 39 38 42 42 39 38 37 32 27 27 28 29 32 33 34 34 34 34 34 33 34 35 37
52 52 53 54 50 45 43 40 39 39 38 37 38 39 40 38 35 32 32 37 46 55 60 63 68 74 67 50 41 38 31 27 24 24 31 34 32 32 33 38 45 48 51 59 74 90 94 92 92 91 83 75 72 74 75 71 69 68 63 63 65 62 58 52 45 40 40 42 41 39 38 36 32 29 28 29 30 31 31 33 35 34 33 33 34 35 35 36
52 51 52 51 50 46 44 43 43 42 39 39 41 41 44 44 44 41 36 39 48 56 61 63 69 74 63 45 38 39 35 34 32 28 31 36 38 37 35 38 43 47 52 53 61 79 91 93 95 97 91 81 75 73 72 68 66 66 67 71 70 62 55 49 45 43 43 45 43 41 41 39 37 33 32 34 33 33 32 31 33 34 33 33 33 33 34 34
52 50 49 49 48 45 44 45 45 43 40 43 45 47 49 49 52 50 42 42 45 47 50 52 58 62 56 47 42 42 41 44 47 43 35 36 42 43 39 39 45 50 51 49 52 67 84 95 95 91 87 81 76 72 69 70 70 70 73 74 70 64 57 50 48 48 48 50 49 47 46 45 44 39 36 38 38 37 36 34 32 32 31 31 31 31 31 32
54 51 48 47 48 46 45 45 45 42 41 46 48 51 51 46 49 49 42 42 41 41 46 50 57 61 57 55 50 47 50 56 58 54 44 36 37 44 47 43 45 50 49 48 49 56 73 89 87 79 78 80 79 75 72 73 75 77 77 76 73 71 64 54 51 54 57 58 55 53 53 51 50 46 39 40 43 42 40 38 34 32 30 28 29 29 29 30
57 54 50 50 49 46 45 44 45 44 45 48 49 51 48 40 42 40 37 40 38 39 48 53 61 64 57 59 60 53 55 61 64 62 56 46 36 37 44 44 45 47 48 49 50 54 63 71 74 74 76 81 85 82 80 78 77 80 81 81 79 75 70 62 59 61 62 63 61 60 62 58 54 51 44 41 43 42 42 41 38 35 32 29 28 28 28 30
59 56 53 53 48 44 43 41 43 46 51 56 52 45 43 41 43 41 40 42 36 34 43 50 61 62 54 58 62 60 61 62 63 63 60 55 43 34 35 39 41 44 48 47 47 54 56 54 65 75 77 82 82 82 86 85 82 82 83 84 81 77 77 73 71 70 67 65 65 66 68 64 58 55 48 42 40 41 42 43 42 38 35 31 28 28 27 28
58 56 54 53 50 47 43 42 46 48 50 57 54 42 43 49 48 45 47 47 40 35 37 42 54 57 52 54 56 64 71 64 58 60 63 63 54 44 40 35 35 40 44 40 39 46 43 44 60 72 75 78 79 82 89 91 88 85 83 82 77 76 80 81 81 79 72 69 69 71 71 65 61 59 52 45 42 42 42 42 42 39 35 33 29 26 24 25
56 55 54 53 54 51 47 50 54 49 47 53 51 45 50 56 51 47 50 55 51 41 35 39 53 56 52 55 58 63 73 71 63 58 61 67 61 54 51 43 38 40 38 35 41 45 38 41 57 67 71 75 78 81 84 89 93 90 84 79 76 77 82 84 85 82 79 78 75 76 80 69 61 60 55 50 47 44 42 40 38 36 34 32 29 26 23 23
55 55 57 56 56 55 56 59 56 52 52 52 47 47 53 56 55 52 53 61 61 51 42 41 50 51 48 57 64 67 75 77 69 59 56 62 62 59 60 57 49 42 36 37 46 51 45 44 53 64 70 71 74 76 77 85 94 98 91 81 78 81 85 86 86 85 84 80 74 76 83 76 64 60 55 53 52 46 41 40 38 37 34 31 28 27 25 22
57 57 58 57 57 59 61 64 64 60 57 49 45 51 54 54 58 59 64 74 67 54 50 46 43 41 41 49 58 70 79 73 69 69 62 57 60 62 65 66 58 49 41 42 50 50 44 47 53 60 67 70 71 70 73 82 91 98 96 88 85 83 84 86 87 88 83 75 73 74 79 79 70 62 55 54 55 50 44 43 41 38 35 31 27 26 25 22
60 60 60 59 60 61 61 69 73 65 57 52 51 55 56 56 60 64 81 93 71 46 47 49 40 32 37 47 52 66 75 66 67 75 67 61 62 63 66 62 56 53 48 48 51 43 36 43 48 51 61 71 71 68 69 77 87 94 95 93 93 89 88 88 87 88 83 80 80 74 76 80 73 63 58 56 56 52 48 45 42 38 35 33 30 29 28 26
61 61 62 62 63 62 64 73 75 65 59 57 57 58 57 62 68 72 89 96 70 44 41 44 42 36 43 56 57 60 68 67 69 71 68 70 68 64 65 58 51 55 55 50 48 44 40 39 39 41 51 59 65 69 70 74 83 88 89 93 96 95 94 94 93 90 88 89 82 73 76 80 74 63 59 58 55 50 47 45 42 39 36 34 32 31 30 29
57 60 61 63 62 62 65 72 72 66 63 62 64 64 64 71 79 87 97 87 64 53 50 44 43 43 47 58 61 58 63 68 70 71 74 76 73 68 67 61 58 65 67 60 55 53 47 41 42 46 45 43 50 61 66 71 79 81 84 90 96 96 95 98 99 94 97 92 76 70 73 77 77 67 58 56 52 49 46 45 45 41 38 36 34 33 31 31
54 58 60 61 61 60 63 67 68 65 65 68 70 72 76 82 84 90 91 69 52 58 63 52 46 47 47 50 58 61 63 66 69 72 75 77 75 74 75 75 76 80 80 75 70 65 59 55 55 50 43 42 48 56 62 68 77 83 86 88 92 96 96 99 99 98 101 91 73 69 71 77 83 69 56 54 51 48 47 46 46 44 42 40 38 38 37 36
51 54 55 56 58 59 59 62 65 66 67 69 73 81 90 93 92 93 81 61 56 63 67 61 50 47 48 46 50 59 63 66 70 69 69 72 75 75 77 77 78 84 87 81 75 72 69 63 57 50 45 47 52 59 63 64 69 77 82 86 93 96 97 99 98 97 100 90 75 71 74 84 83 62 53 54 50 49 48 45 45 44 43 43 42 43 42 41
49 51 53 54 54 56 57 61 67 70 70 73 81 89 96 98 96 90 76 64 68 67 64 66 55 45 48 51 52 55 60 63 64 66 66 68 73 77 76 71 70 81 87 81 76 76 74 69 65 62 56 51 50 55 59 56 56 60 64 74 87 92 96 100 98 97 98 90 80 74 79 90 80 58 51 52 50 51 48 46 45 43 43 44 43 45 44 43
47 50 54 54 52 55 57 62 69 70 73 83 92 93 97 100 90 81 75 67 69 70 67 66 63 55 51 50 49 49 57 63 60 62 70 73 77 82 81 77 76 81 85 84 83 79 74 73 72 65 56 51 46 45 45 45 51 56 57 67 77 81 87 91 91 94 93 88 84 81 84 89 79 61 52 50 52 54 50 48 47 45 45 45 44 46 46 46
45 49 53 55 56 57 58 62 67 70 77 89 97 99 98 94 82 76 73 64 65 73 72 67 65 69 66 53 47 46 48 58 64 67 75 79 80 81 79 77 78 79 80 84 87 81 73 71 67 55 49 47 45 42 40 44 57 63 67 77 80 76 78 83 87 91 91 92 91 87 86 85 76 63 53 51 52 52 51 50 47 47 46 46 47 49 49 49
46 52 55 55 55 58 61 61 61 67 78 86 95 101 95 84 76 74 65 55 58 67 75 77 70 74 79 66 57 55 49 53 66 74 80 82 81 79 76 73 74 74 74 76 80 78 75 74 67 57 55 51 46 45 41 42 52 60 69 79 77 74 77 81 89 91 90 93 87 81 81 77 69 59 51 51 49 48 53 52 48 48 47 48 51 51 51 51
49 53 57 55 54 59 62 61 61 68 80 89 93 94 87 77 76 76 66 55 53 57 71 86 79 70 75 75 68 63 59 60 67 73 80 84 83 79 76 74 72 72 71 72 75 72 70 74 69 61 61 56 50 53 51 48 53 59 65 66 68 81 83 79 91 96 94 92 80 71 70 68 66 58 48 47 46 46 53 54 50 48 47 49 50 50 52 53
49 52 57 57 56 58 59 60 65 71 80 89 92 88 84 79 77 78 73 61 52 53 65 84 89 73 64 72 72 64 63 65 68 73 76 79 79 72 69 72 72 71 69 70 76 71 66 75 76 66 62 60 58 61 63 62 62 61 58 53 63 83 85 81 91 92 88 89 81 71 68 66 63 53 42 43 44 46 53 55 51 49 49 48 47 48 51 52
55 58 58 58 59 58 58 63 71 77 84 88 87 85 87 83 76 72 74 69 61 60 63 73 93 91 71 64 65 63 65 63 64 71 74 75 74 65 60 64 65 67 68 68 73 70 64 71 78 70 64 67 67 66 69 70 66 61 58 55 59 67 71 76 81 78 76 80 77 72 73 70 58 44 38 39 40 45 51 50 49 49 48 47 46 48 49 51
60 60 56 57 61 62 62 69 78 82 84 84 79 78 82 82 77 70 69 72 71 70 65 61 80 95 83 66 60 60 63 60 59 67 70 70 70 66 62 62 62 64 67 71 73 72 69 69 73 74 72 75 75 67 61 62 64 63 61 60 58 57 63 70 73 73 74 76 74 70 70 64 50 39 39 40 38 43 48 49 51 51 48 46 47 49 48 49
64 63 57 56 61 67 71 77 83 83 79 78 75 73 74 75 77 74 69 72 75 73 68 61 68 83 83 74 65 60 62 62 60 63 66 65 67 68 63 60 61 62 69 79 79 75 73 69 70 77 78 76 70 58 51 55 57 55 54 53 51 52 59 65 69 70 66 65 66 63 58 51 42 39 40 39 39 42 45 48 51 51 50 49 50 50 49 49
66 64 60 57 58 67 77 80 80 83 79 73 70 68 69 71 74 75 71 74 79 76 73 67 64 77 87 80 68 60 61 64 64 64 62 59 59 59 55 53 55 59 65 73 72 68 71 71 74 81 79 73 69 63 61 60 54 54 56 53 53 57 59 61 65 65 62 61 60 59 56 45 37 37 37 36 38 38 40 43 46 50 52 52 52 52 50 50
66 63 63 63 60 66 80 83 79 82 79 72 67 67 73 75 75 76 74 76 80 81 81 72 63 76 91 87 75 65 61 64 67 66 61 56 52 50 54 61 63 67 70 72 73 76 78 78 80 86 84 78 76 73 71 66 62 69 72 62 58 60 59 62 64 61 62 63 59 63 64 46 32 32 32 32 35 35 36 39 42 47 50 50 52 52 51 51
66 66 67 69 67 68 76 79 76 75 72 71 71 70 76 80 78 77 76 77 79 80 80 71 64 77 91 93 87 74 64 63 66 70 70 64 53 46 58 74 76 77 77 73 74 80 83 83 84 90 92 91 89 86 83 78 74 72 68 60 57 56 59 68 69 64 68 67 59 65 66 45 30 32 31 31 33 32 33 35 35 40 43 44 46 48 49 50
66 69 71 74 71 66 65 64 65 67 65 68 72 68 68 73 76 76 74 74 76 77 76 68 66 78 87 93 93 82 74 69 66 72 78 71 59 49 56 73 78 75 73 71 71 76 83 86 84 85 90 88 84 80 76 72 69 64 60 59 59 57 60 64 65 69 75 69 62 66 62 42 31 34 33 31 32 30 30 30 29 31 35 38 40 41 43 45
62 70 78 81 77 69 65 60 61 67 68 70 73 71 67 68 71 72 72 72 73 74 74 68 68 76 81 90 95 89 84 78 69 70 73 71 71 62 54 61 71 69 67 72 76 78 82 84 78 75 75 68 63 61 58 58 62 63 61 61 62 62 64 68 72 76 72 66 67 66 55 43 36 33 31 33 35 34 31 31 29 29 33 37 40 40 39 39
58 66 72 78 79 74 69 66 65 68 71 71 70 68 69 70 71 73 74 72 73 74 72 69 72 75 75 85 94 90 84 79 70 67 67 68 74 73 61 57 60 62 65 72 76 76 82 85 80 74 70 64 63 61 58 57 58 58 59 62 66 68 75 81 80 71 64 68 73 63 54 51 40 30 30 32 34 34 33 34 32 33 38 41 41 41 40 38
56 60 63 68 76 74 65 60 57 58 66 71 67 63 66 71 73 74 73 72 73 75 73 70 70 70 72 82 93 92 85 81 76 70 69 70 72 76 77 71 63 60 66 74 75 73 77 80 78 77 75 72 72 72 69 67 65 64 65 69 73 78 86 87 80 72 73 77 70 57 56 55 40 31 31 30 32 34 33 33 34 35 40 41 40 40 38 37
53 57 57 61 70 70 63 59 57 59 63 65 65 64 67 74 74 70 69 73 75 74 71 66 61 65 73 83 93 92 80 79 84 76 67 69 71 72 79 83 76 68 67 74 75 72 72 72 73 77 78 76 80 83 80 77 77 78 77 77 80 83 85 83 78 78 81 77 64 56 58 53 40 37 36 32 33 34 31 32 33 35 38 39 40 39 36 34
52 53 50 51 59 65 66 67 69 72 71 69 70 68 66 70 70 65 68 73 72 72 71 63 57 66 76 84 96 93 68 60 75 75 66 70 75 74 75 79 80 78 74 75 76 73 72 71 70 74 80 82 84 83 79 77 79 80 79 81 84 86 87 85 79 77 79 74 62 59 63 56 42 39 37 35 35 33 32 32 32 35 38 39 38 36 32 30
51 49 47 49 58 64 67 68 71 75 74 72 72 69 66 64 61 60 65 66 65 69 68 60 60 71 78 81 91 91 70 56 61 66 64 65 70 75 78 78 82 84 79 76 76 75 75 76 76 80 87 87 83 83 81 79 80 84 85 88 90 89 87 84 75 70 71 68 63 68 70 57 42 39 39 36 34 33 32 32 33 37 38 35 32 28 25 23
52 51 47 50 59 63 63 68 77 78 70 62 59 60 61 60 57 60 65 64 64 67 65 61 66 76 81 82 82 82 77 67 61 63 67 68 70 77 81 81 84 87 83 77 76 77 78 80 83 86 89 88 85 87 87 85 89 93 86 78 76 75 74 74 70 65 62 62 65 69 62 46 39 42 40 35 32 31 31 31 33 34 31 27 24 21 19 18